Regional Weather Roundup
Issued by NWS

Home | Current Version | Previous Version | Text Only | Print | Product List | Glossary On
Versions: 1 2 3 4 5 6 7 8 9 10 11 12 13 14 15 16 17 18 19 20 21 22 23 24 25 26 27 28 29 30 31 32 33 34 35 36 37 38 39 40 41 42 43 44 45 46 47 48 49 50
000
ASUS44 KLIX 011212
RWRLA
LOUISIANA WEATHER ROUNDUP
NATIONAL WEATHER SERVICE NEW ORLEANS LA
700 AM CDT SAT AUG 01 2015

NOTE: "FAIR" INDICATES FEW OR NO CLOUDS BELOW 12,000 FEET WITH NO
      SIGNIFICANT WEATHER AND/OR OBSTRUCTIONS TO VISIBILITY.
      SKY/WX - SKY CONDITION AND SIGNIFICANT WEATHER.
      TMP - AIR TEMPERATURE.    DP   - DEWPOINT TEMPERATURE.
      RH  - RELATIVE HUMIDITY.  PRES - PRESSURE.
      HX  - HEAT INDEX.         WCI  - WIND CHILL INDEX.

*  THESE STATIONS ARE NOT NWS OR FAA STATIONS AND ARE NOT UNDER
   NWS QUALITY CONTROL.

LAZ040-048-061>063-065-066-069-011300-
SOUTHEAST LOUISIANA

CITY           SKY/WX    TMP DP  RH WIND       PRES   REMARKS
N.O. AUDUBON     N/A     81  67  62 MISG        N/A
6HR MIN TEMP:  79; 6HR MAX TEMP:  84;

N.O. INTL ARPT PTCLDY    81  64  56 NE15      29.89R
6HR MIN TEMP:  80; 6HR MAX TEMP:  85;

N.O. LAKEFRONT CLEAR     80  67  64 NE22      29.89R
6HR MIN TEMP:  80; 6HR MAX TEMP:  86;

N.O. DOWNTOWN* FAIR      81  64  57 NE6       29.90R
6HR MIN TEMP:  81; 6HR MAX TEMP:  86;

RESERVE*       FAIR      75  68  79 NE5       29.91R
6HR MIN TEMP:  72; 6HR MAX TEMP:  77;

SLIDELL        CLEAR     69  67  93 N5        29.89R
6HR MIN TEMP:  67; 6HR MAX TEMP:  72;

BATON ROUGE    CLEAR     73  63  70 MISG      29.93R
6HR MIN TEMP:  71; 6HR MAX TEMP:  76;

BOOTHVILLE     MOCLDY    85  71  63 N6        29.89R
6HR MIN TEMP:  78; 6HR MAX TEMP:  85; 6HR PCP:  0.04;

BELLE CHASSE   PTCLDY    76  66  71 N7        29.89R
6HR MIN TEMP:  72; 6HR MAX TEMP:  80;

BOGALUSA*        N/A     70  64  82 N3        29.93R
6HR MIN TEMP:  69; 6HR MAX TEMP:  72;

GALLIANO*      NOT AVBL
NEW ROADS*     FAIR     N/A N/A N/A NE8       29.94R
GONZALES*      FAIR      73  64  72 CALM      29.91R
6HR MIN TEMP:  72; 6HR MAX TEMP:  77;

HAMMOND*       CLEAR     72  63  73 N8        29.93R
HOUMA*         NOT AVBL
PORT FOURCHON* SUNNY     81  75  83 NW5       29.90R

$$

LAZ041-044-053-054-011300-
SOUTHWEST LOUISIANA

CITY           SKY/WX    TMP DP  RH WIND       PRES   REMARKS
LAKE CHARLES   CLEAR     75  66  73 NE9       29.94R
6HR MIN TEMP:  74; 6HR MAX TEMP:  78;

LAFAYETTE      CLEAR     72  67  84 NE7       29.93R
6HR MIN TEMP:  71; 6HR MAX TEMP:  76;

PATTERSON      CLEAR     73  66  78 NE3       29.93R
6HR MIN TEMP:  73; 6HR MAX TEMP:  79;

SALT POINT       N/A     74  69  85 MISG      29.89R
6HR MIN TEMP:  74; 6HR MAX TEMP:  80;

NEW IBERIA     CLEAR     73  66  78 N8        29.93R
6HR MIN TEMP:  72; 6HR MAX TEMP:  78;

CHENAULT AIRPK CLEAR     72  66  83 N6        29.95R

$$

LAZ027-028-011300-
CENTRAL LOUISIANA

CITY           SKY/WX    TMP DP  RH WIND       PRES   REMARKS
FORT POLK      CLEAR     74  65  74 N7        29.96S
6HR MIN TEMP:  74; 6HR MAX TEMP:  80;

ALEXANDRIA INT CLEAR     73  67  81 N7        29.95S
6HR MIN TEMP:  72; 6HR MAX TEMP:  77;

ALEXANDRIA     CLEAR     74  66  76 N3        29.97S
6HR MIN TEMP:  71; 6HR MAX TEMP:  76;


$$

LAZ001-002-011300-
NORTHWEST LOUISIANA

CITY           SKY/WX    TMP DP  RH WIND       PRES   REMARKS
SHREVEPORT     PTCLDY    74  64  71 CALM      30.01S
6HR MIN TEMP:  73; 6HR MAX TEMP:  82;

BARKSDALE AFB  CLEAR     70  65  82 NE3       30.01S
6HR MIN TEMP:  70; 6HR MAX TEMP:  76;

DTN SHREVEPORT CLEAR     72  65  78 CALM      30.02R
6HR MIN TEMP:  71; 6HR MAX TEMP:  78;


$$

LAZ014-016-011300-
NORTHEAST LOUISIANA

CITY           SKY/WX    TMP DP  RH WIND       PRES   REMARKS
MONROE         CLEAR     71  67  87 N5        30.01R
6HR MIN TEMP:  69; 6HR MAX TEMP:  75;

TALLULAH       CLEAR     75  69  81 N9        29.99R
6HR MIN TEMP:  73; 6HR MAX TEMP:  78;


$$




USA.gov is the U.S. government's official web portal to all federal, state and local government web resources and services.